ECMWFNIL_prec_cthk_021.txt.gz
RH
50 49 50 55 61 61 59 61 60 55 52 51 51 54 57 58 55 48 46 48 45 39 34 31 31 35 37 37 37 37 37 38 37 34 32 32 33 33 32 29 25 21
51 51 52 59 64 63 59 60 59 56 54 50 51 57 60 60 59 52 46 46 44 39 34 34 34 34 34 35 37 37 35 34 32 28 26 24 22 19 17 16 17 17
55 54 57 61 63 60 55 54 51 48 50 50 52 57 58 57 59 55 51 48 44 38 35 35 35 33 31 31 32 31 29 27 24 20 17 16 15 13 11 12 15 17
60 60 61 61 61 60 55 50 44 40 42 46 49 51 50 51 52 51 52 49 40 35 34 34 33 31 26 25 25 22 20 19 16 14 13 13 14 15 16 20 23 25
58 60 60 59 60 59 54 46 41 39 37 37 37 38 44 48 46 43 46 46 40 36 35 33 30 26 23 22 20 17 16 16 15 16 18 18 20 22 25 29 32 33
52 54 56 55 54 54 51 45 41 40 36 32 32 35 42 46 42 40 41 42 41 41 40 36 30 24 23 21 19 19 20 20 20 23 26 26 28 30 31 33 35 37
50 49 49 48 47 47 47 43 40 40 37 36 38 41 46 46 42 42 43 41 44 45 41 38 32 27 27 26 25 26 26 25 27 29 31 32 33 34 35 36 37 38
51 48 45 44 44 46 46 41 37 37 37 40 42 45 51 51 46 46 48 46 46 45 41 37 34 32 35 36 35 32 29 30 32 32 33 33 35 36 38 39 40 40
53 49 46 45 45 47 44 38 37 41 44 44 43 46 50 48 45 48 51 49 47 45 43 41 40 40 43 43 41 38 37 37 36 36 35 36 36 37 38 40 42 43
56 52 50 47 47 46 43 38 40 46 47 43 39 40 41 40 42 46 49 52 51 49 48 47 46 47 48 47 44 42 41 42 41 40 39 39 39 39 39 42 45 46
58 55 52 50 48 47 43 39 41 45 46 41 36 36 36 38 42 45 48 53 55 55 55 52 50 49 49 50 51 49 47 45 45 45 45 45 45 45 45 47 49 50
57 56 54 52 50 49 45 42 41 46 48 44 40 40 41 40 42 46 49 52 53 54 56 56 56 55 54 53 53 54 54 52 51 51 50 51 51 51 52 52 54 54
57 56 55 54 53 51 49 47 47 50 51 48 46 47 45 42 42 46 50 50 49 49 50 54 57 58 59 59 56 56 56 58 58 57 55 56 57 57 56 56 58 59
56 53 51 50 50 50 49 49 51 53 53 51 51 52 49 46 44 46 48 48 47 47 47 51 56 58 60 62 61 61 61 61 63 64 64 63 63 62 62 63 64 64
54 52 48 47 47 48 49 49 49 52 54 55 55 55 53 50 47 46 48 48 48 48 49 50 53 56 58 61 63 65 66 65 66 68 71 72 71 68 69 72 72 72
55 54 52 52 52 51 53 52 50 49 51 53 55 57 57 54 50 48 48 48 48 50 51 52 53 54 56 59 61 63 65 66 66 67 71 73 75 74 75 76 79 81
55 54 53 53 52 52 53 53 51 50 50 50 53 56 57 57 55 52 50 49 49 50 52 54 55 55 55 57 59 61 63 62 63 65 69 72 75 77 76 78 83 86
53 53 53 52 51 51 51 51 51 53 53 52 54 55 56 58 58 55 52 51 51 51 52 54 56 55 53 54 58 61 59 57 60 66 71 76 77 77 78 81 86 89
55 55 54 53 53 53 53 52 52 52 52 53 54 54 54 56 58 57 54 53 54 53 53 56 57 56 55 56 60 62 58 57 64 72 76 77 78 79 79 80 83 85
57 56 55 54 54 53 54 55 54 53 53 54 55 56 55 55 57 58 59 59 59 58 60 62 62 61 59 59 58 60 61 62 65 69 73 75 77 80 78 77 79 82
57 55 54 55 55 55 55 55 54 53 52 54 57 59 59 59 59 61 63 64 64 64 65 66 67 66 65 65 61 59 62 63 60 62 68 73 76 79 80 80 80 79
57 55 53 54 55 56 56 57 57 54 53 55 55 55 56 57 57 59 64 65 65 65 63 62 64 63 63 65 65 62 61 61 59 61 68 72 73 77 81 79 75 73
60 58 57 57 57 57 58 60 61 58 55 54 53 52 54 53 50 53 56 56 58 62 61 60 63 64 62 62 63 63 62 60 60 65 70 71 68 70 73 71 68 71
67 66 65 65 64 62 62 62 63 60 57 55 53 52 53 53 52 52 53 54 55 56 56 56 58 58 58 61 65 66 64 62 62 67 72 72 68 67 69 69 67 70
69 68 67 67 65 63 62 61 60 58 56 54 53 50 49 49 51 52 55 57 58 55 52 52 52 49 50 55 61 64 64 63 62 65 69 71 70 71 73 71 71 70
61 60 59 58 56 54 53 52 51 50 50 49 49 48 46 46 48 50 53 57 59 57 54 51 51 49 48 50 56 62 65 64 63 64 66 67 72 77 75 73 74 71

ECMWFNIL_prec_cthk_024.txt.gz
RH
41 40 39 42 47 47 46 46 45 47 50 52 52 50 49 47 45 46 49 49 44 41 42 38 36 39 41 42 43 44 46 45 40 40 40 41 41 38 37 37 38 38
43 41 40 43 47 48 46 45 44 47 50 53 51 48 45 42 39 40 46 49 45 42 44 41 36 37 39 40 42 40 39 38 37 36 35 34 34 33 32 29 27 27
48 47 46 47 48 48 44 41 42 45 46 47 45 41 37 35 35 37 44 48 43 39 42 41 37 37 37 37 40 38 36 35 33 30 27 25 23 23 23 20 20 20
51 52 52 52 50 46 43 41 40 40 40 38 37 35 33 33 33 34 40 41 34 31 37 40 36 35 35 35 38 38 35 32 27 22 18 16 14 16 20 21 21 21
51 51 54 56 52 47 44 42 39 37 35 33 32 31 30 28 28 31 34 33 28 25 30 35 35 33 34 35 36 35 31 25 19 15 12 12 12 16 20 22 22 22
50 49 54 57 54 48 45 41 37 34 32 30 31 31 29 27 29 31 29 26 25 23 24 28 32 34 34 34 32 30 25 19 16 14 13 15 16 19 23 26 26 26
52 50 54 58 56 49 43 39 36 32 30 31 33 33 31 31 33 32 26 23 24 26 27 28 29 31 33 33 32 29 24 20 20 21 22 25 27 28 30 31 30 30
54 51 50 53 51 45 42 40 36 32 32 33 33 34 32 33 36 32 25 24 26 31 34 32 30 29 30 34 35 32 29 29 32 33 33 33 33 34 35 35 34 32
55 50 46 45 44 42 42 41 37 34 34 34 31 31 29 32 39 34 27 27 29 33 35 34 34 32 33 38 37 34 36 37 39 39 37 37 38 37 37 37 37 36
51 48 47 46 46 46 44 43 39 35 35 34 31 31 30 34 39 35 30 30 32 35 35 35 38 38 40 42 37 35 40 41 41 41 39 39 39 39 38 38 39 39
51 51 52 51 50 50 48 46 41 36 36 36 35 35 35 36 37 34 32 34 34 37 38 38 41 43 45 46 42 41 44 44 44 43 41 41 41 40 42 42 43 44
57 57 56 54 52 51 49 47 45 42 40 39 38 38 37 36 36 34 33 35 36 38 40 42 43 43 46 50 48 48 51 51 49 47 46 47 46 46 47 47 48 49
61 59 57 54 52 50 49 49 49 46 44 42 41 41 40 38 36 35 34 33 34 37 40 43 44 42 45 50 53 55 57 58 58 57 56 56 54 54 54 53 54 54
62 60 58 54 52 51 51 50 49 47 47 47 46 45 45 41 38 36 35 33 33 35 37 39 41 41 43 47 51 56 60 63 65 64 64 64 62 61 59 59 60 61
62 60 57 55 52 51 51 50 49 48 47 47 46 45 45 45 42 40 37 34 33 35 36 36 38 41 43 45 48 52 57 61 63 64 66 69 69 66 64 64 64 64
60 59 56 55 54 51 50 49 48 49 49 48 47 46 46 46 45 44 42 39 36 35 36 36 37 40 42 44 46 50 55 58 60 63 66 67 67 68 70 70 68 67
61 59 57 57 55 54 52 49 48 48 48 48 48 49 49 49 48 47 45 44 41 38 36 36 37 40 43 47 50 52 55 57 59 59 60 62 64 66 69 71 71 71
63 60 57 56 54 52 50 49 48 47 47 47 48 49 50 51 51 50 49 49 47 43 41 41 41 42 44 48 51 52 53 55 55 54 56 61 67 71 72 70 68 69
61 58 55 54 52 50 50 49 48 49 49 48 47 47 48 50 51 52 52 52 50 49 50 51 54 56 54 52 52 51 52 53 53 53 55 58 64 68 68 65 64 67
58 57 56 55 54 54 55 55 55 57 57 55 52 52 51 51 51 51 51 51 51 52 53 53 58 65 66 66 65 61 59 60 59 57 55 56 60 61 59 57 58 61
54 54 56 58 59 60 63 64 64 64 63 61 59 55 52 51 51 49 49 49 49 50 50 50 56 61 65 73 77 72 67 66 63 59 55 53 55 57 57 56 54 51
54 54 55 56 59 62 66 69 69 66 62 61 59 56 53 53 51 47 46 47 47 47 46 46 50 53 57 65 71 71 68 65 61 59 57 56 58 59 59 59 56 53
61 60 60 62 65 68 69 69 68 66 63 61 60 60 59 58 55 51 47 46 47 48 47 46 46 48 51 56 61 62 63 61 60 57 57 59 62 63 64 65 62 59
70 68 69 73 76 77 76 73 72 71 67 65 65 65 63 61 58 55 50 48 48 49 49 48 47 49 53 55 56 58 58 58 57 53 51 54 58 60 65 68 65 61
77 76 75 76 77 77 76 74 73 73 70 68 68 67 65 62 60 57 54 51 49 48 48 48 48 50 52 52 52 53 54 54 54 51 51 55 58 59 62 64 63 62
69 70 69 70 70 70 69 67 67 66 63 60 59 59 58 57 56 55 53 51 50 50 49 47 49 49 48 48 49 49 51 51 51 52 54 58 61 61 62 64 65 63

ECMWFNIL_prec_cthk_030.txt.gz
RH
59 54 49 51 52 53 52 46 44 46 47 48 48 46 44 44 45 44 42 42 43 38 33 33 31 30 36 41 42 43 43 40 38 39 40 39 40 41 40 40 41 43
57 53 50 50 50 52 50 46 46 48 50 50 49 45 43 41 40 40 38 38 39 35 30 30 27 27 34 40 43 44 43 42 41 42 43 44 43 42 40 39 38 38
56 54 52 51 51 53 51 49 51 54 54 52 49 46 44 40 39 40 37 37 40 35 30 30 27 26 32 37 41 44 43 43 44 45 46 46 45 43 40 37 34 34
59 57 56 56 57 58 57 55 58 60 58 56 52 47 44 42 41 40 39 39 40 36 33 31 27 26 30 33 37 41 44 46 47 47 48 46 43 41 39 37 35 35
62 61 60 60 62 63 61 60 62 63 62 61 57 51 47 46 43 40 39 40 38 36 36 33 27 27 29 30 32 36 41 46 48 48 48 45 41 39 38 37 36 37
63 64 63 62 64 65 62 61 63 63 64 63 59 53 48 46 43 41 40 39 37 36 37 34 29 27 27 27 29 31 36 42 45 45 46 45 42 38 34 32 31 31
64 65 65 64 66 65 62 61 61 60 61 61 57 49 45 43 42 42 42 38 37 38 37 34 30 28 27 27 28 28 30 34 38 40 41 40 37 32 28 26 24 24
66 67 67 69 69 66 65 62 59 58 59 58 53 46 43 42 42 43 40 34 35 39 37 34 31 29 28 28 27 25 22 24 28 32 32 31 29 26 24 23 23 24
66 67 68 71 72 69 66 61 56 56 57 54 51 47 44 43 43 45 38 30 33 39 38 35 33 29 28 29 28 25 21 20 22 24 25 25 25 25 25 24 25 27
64 63 65 70 72 68 63 58 54 54 54 53 51 49 46 46 48 48 38 29 32 37 38 36 33 30 30 30 29 26 23 23 24 26 28 30 31 32 31 30 31 32
71 68 69 70 68 64 60 58 55 52 52 52 50 49 48 49 52 49 38 32 34 35 35 34 32 31 31 30 29 27 26 28 31 33 34 36 37 37 37 37 37 37
82 80 81 76 68 60 58 59 55 52 51 49 47 48 48 49 50 44 36 35 37 35 33 34 33 32 33 34 34 34 34 35 37 38 38 38 39 38 37 38 39 40
87 87 86 81 70 60 58 57 53 50 50 45 44 47 49 49 47 41 35 35 38 36 35 35 35 35 37 39 39 39 40 41 42 42 41 41 41 40 38 37 39 41
86 88 86 82 74 67 66 64 56 52 50 46 47 50 50 50 47 41 36 35 36 37 36 36 35 34 37 39 40 41 43 45 45 46 45 45 45 44 43 42 43 44
83 84 83 80 75 73 74 72 65 58 54 50 49 49 49 48 45 40 35 34 35 35 37 38 37 36 36 37 38 40 43 46 48 48 48 48 48 47 47 48 48 48
80 81 80 77 76 76 75 74 68 60 55 53 50 48 47 46 45 41 37 37 37 37 37 38 39 39 38 37 37 38 40 43 44 45 46 46 46 46 47 48 49 51
78 78 77 75 75 76 74 72 67 60 55 52 52 51 49 48 49 47 44 43 43 43 42 41 39 39 38 37 37 37 37 38 38 40 41 41 42 43 45 45 46 48
74 71 71 72 72 73 72 70 69 65 60 55 54 55 53 52 52 51 49 48 48 47 47 46 44 42 40 38 37 37 37 36 36 36 37 37 38 40 41 41 42 45
70 66 69 74 77 76 74 70 69 71 69 65 65 65 60 55 52 50 49 49 49 50 50 49 48 47 45 44 43 41 41 39 38 38 38 40 41 42 43 43 42 44
68 64 67 76 81 81 78 74 74 76 74 71 74 76 70 62 57 53 52 53 54 54 52 51 51 50 49 48 47 46 45 44 43 43 43 44 46 47 46 46 47 48
66 64 68 76 81 80 79 78 79 80 76 71 72 72 68 64 61 58 58 61 63 61 57 55 53 52 50 48 46 45 43 42 41 40 40 40 42 45 48 52 54 56
65 64 66 70 74 73 73 71 71 71 70 67 65 63 61 59 59 58 58 61 64 65 65 62 58 55 51 48 46 44 41 39 37 37 37 37 37 40 45 51 55 57
66 64 64 64 66 66 66 64 63 61 60 59 58 58 58 57 57 57 56 56 57 58 59 58 57 56 54 51 49 47 48 51 50 46 43 39 38 39 42 45 49 52
69 68 66 63 62 63 62 62 62 61 60 59 58 58 59 59 60 61 60 60 60 60 58 57 56 56 55 54 52 51 54 61 61 55 50 46 46 48 48 49 51 54
72 73 70 68 66 65 63 63 63 63 62 61 60 62 64 64 65 66 66 67 66 66 65 63 62 62 61 60 59 58 58 60 58 56 54 52 53 53 52 53 56 60
69 72 71 69 68 66 64 63 63 62 62 61 62 66 68 69 69 68 69 70 69 68 68 67 65 66 65 65 65 65 65 63 60 56 53 51 52 52 54 55 57 60

ECMWFNIL_prec_cthk_033.txt.gz
RH
68 67 64 56 55 56 55 57 56 49 43 43 45 45 45 47 49 49 44 41 41 38 31 27 29 33 34 35 39 44 49 49 45 42 39 38 39 40 41 42 43 44
68 66 63 57 55 55 55 57 56 48 43 45 46 46 45 46 47 46 42 41 43 40 31 24 25 30 33 36 40 45 48 46 43 42 41 40 41 43 43 43 43 44
66 65 64 58 54 53 54 56 54 48 46 47 47 48 46 44 44 43 41 40 40 38 30 22 23 29 33 37 39 41 43 41 41 41 41 43 45 46 46 44 44 44
66 65 64 57 53 52 52 53 52 50 50 50 50 50 46 43 42 41 41 40 38 38 31 25 25 29 32 36 36 36 37 36 36 38 40 44 47 47 46 44 42 42
65 63 61 55 52 51 50 50 53 55 56 55 53 52 47 43 41 41 42 41 39 39 33 27 28 29 30 33 33 33 33 32 33 36 40 43 44 44 42 39 38 36
61 59 57 55 54 52 51 52 56 59 60 58 54 51 47 43 40 39 41 41 40 38 33 29 29 30 30 30 31 32 31 31 33 34 38 39 39 40 38 36 34 32
58 56 56 58 58 55 53 54 57 58 59 58 53 49 44 39 37 35 36 39 38 34 32 31 29 29 30 29 30 32 31 31 33 33 34 34 32 33 34 33 31 28
58 57 58 59 60 59 56 55 57 57 56 54 48 43 40 38 36 34 35 38 34 31 34 36 30 28 29 29 30 31 31 32 32 30 30 30 27 27 28 28 28 27
62 61 61 61 60 59 57 56 57 55 55 52 43 37 38 39 38 36 37 36 31 32 38 40 34 29 28 29 28 27 28 30 31 29 29 29 27 26 26 26 26 27
67 66 65 63 60 58 57 56 57 57 57 53 42 35 37 40 40 40 39 34 29 35 41 42 37 31 28 30 28 26 26 25 28 31 31 31 30 28 27 26 27 29
73 72 69 66 63 60 59 58 56 58 60 52 40 35 37 40 43 45 41 33 29 37 43 42 38 33 30 30 29 29 29 23 22 26 29 30 31 29 27 26 28 31
80 78 74 71 70 68 66 62 58 58 56 48 40 38 38 41 45 48 43 35 35 40 42 41 39 34 30 30 31 31 30 26 23 25 27 30 32 31 30 30 31 33
81 80 76 73 73 74 73 68 63 58 50 45 44 42 40 42 46 48 43 40 42 41 39 38 36 33 31 31 32 31 29 27 26 28 30 33 35 36 35 36 37 37
77 78 76 75 74 75 76 73 69 62 52 48 47 45 43 44 44 43 40 41 46 43 38 36 34 33 33 32 31 31 29 29 30 31 34 37 39 41 40 40 41 40
78 81 80 79 80 79 78 75 70 65 59 53 47 45 46 47 45 43 41 42 45 44 41 39 37 35 35 34 33 33 32 33 34 36 39 41 42 44 45 44 43 43
85 86 83 81 81 80 78 77 71 66 63 56 49 47 48 49 49 47 43 41 41 41 40 40 40 38 36 34 34 34 36 37 38 41 43 44 44 46 47 47 46 45
88 85 81 78 78 77 78 81 76 69 66 61 55 52 49 49 51 50 46 41 38 38 38 38 39 40 38 37 35 35 36 38 40 42 44 45 45 45 45 47 47 46
87 81 77 77 78 75 77 83 80 75 73 67 61 57 52 50 51 51 47 43 40 40 39 39 40 41 42 42 41 39 38 38 39 40 42 43 43 43 44 44 44 44
82 78 75 79 81 76 75 83 85 81 76 69 63 61 58 54 52 50 49 47 46 46 46 45 44 44 45 45 44 44 43 41 40 40 40 40 40 40 40 41 41 40
76 75 76 79 80 74 74 80 84 82 78 70 65 64 62 58 55 53 53 52 51 50 50 51 50 49 47 46 45 45 45 44 43 41 40 39 39 39 39 39 39 39
74 75 76 77 77 75 75 75 75 77 79 77 74 70 66 65 64 62 60 58 55 52 51 51 51 51 52 51 51 51 50 49 48 47 45 44 43 41 41 41 43 44
73 73 74 76 76 73 71 70 70 73 77 79 79 77 76 76 75 71 66 63 60 56 56 56 55 56 57 57 58 58 58 57 56 54 52 50 49 49 49 50 50 50
69 69 70 73 73 70 67 67 69 70 73 77 80 84 85 84 80 73 68 67 65 60 59 60 61 61 61 61 62 62 60 59 58 57 55 53 50 50 50 49 49 49
70 69 68 68 69 68 67 67 70 71 73 75 78 80 81 78 75 71 69 69 66 61 58 59 62 63 62 63 64 63 60 59 57 56 55 55 54 52 50 50 50 51
72 72 72 72 71 71 70 69 71 74 75 76 76 74 70 68 66 65 65 64 63 61 60 60 64 66 65 65 67 66 66 65 63 60 60 61 63 63 64 63 60 60
75 75 76 76 76 76 74 72 71 72 74 75 75 74 72 70 67 65 64 63 63 63 63 64 67 69 69 69 70 70 70 69 69 68 67 67 68 68 69 69 67 67